Waarnemingen

Advertentie
Mijn weer
Storlien-Visjovalen A, Zweden (2207): temperatuur & dauwpunt: 01.08.2020 23:00:00 - 07.08.2020 23:00:00 (CEST)Storlien-Visjovalen A, Zweden (2207): windsnelheid & windstoten: 01.08.2020 23:00:00 - 07.08.2020 23:00:00 (CEST)Storlien-Visjovalen A, Zweden (2207): windrichting: 01.08.2020 23:00:00 - 07.08.2020 23:00:00 (CEST)Storlien-Visjovalen A, Zweden (2207): luchtdruk: 01.08.2020 23:00:00 - 07.08.2020 23:00:00 (CEST)Storlien-Visjovalen A, Zweden (2207): zicht: 01.08.2020 23:00:00 - 07.08.2020 23:00:00 (CEST)Storlien-Visjovalen A, Zweden (2207): neerslag: 01.08.2020 23:00:00 - 07.08.2020 23:00:00 (CEST)
Datum & Tijd tt [°C] td [°C] ff [km/u] ff [kn] fx [km/u] fx [kn] dd ppp [hPa] vv [km] rr [mm]
07.08.2020 23:00:00 15,9 10,4 14 8 31 17 ZW 1020,2 50 0,0
07.08.2020 22:00:00 17,0 10,8 13 7 29 15 ZZW 1020,1 50 0,0
07.08.2020 21:00:00 18,5 11,1 12 6 29 15 ZZW 1019,7 50 0,0
07.08.2020 20:00:00 20,0 11,0 14 8 29 16 ZZW 1019,2 50 0,0
07.08.2020 19:00:00 20,7 10,8 15 8 33 18 ZZW 1019,0 50 0,0
07.08.2020 18:00:00 21,3 10,2 17 9 34 19 Z 1019,1 50 0,0
07.08.2020 17:00:00 21,6 10,4 15 8 36 20 Z 1019,3 50 0,0
07.08.2020 16:00:00 21,1 10,0 17 9 35 19 Z 1019,5 50 0,0
07.08.2020 15:00:00 22,7 11,4 16 8 41 22 Z 1019,3 40 0,0
07.08.2020 14:00:00 22,2 10,4 20 11 45 24 ZZW 1019,4 50 0,0
07.08.2020 13:00:00 22,2 10,7 19 11 45 24 Z 1019,1 47 0,0
07.08.2020 12:00:00 21,9 11,3 14 8 35 19 Z 1019,4 48 0,0
07.08.2020 11:00:00 21,3 11,6 15 8 31 17 Z 1019,7 48 0,0
07.08.2020 10:00:00 21,1 11,4 10 5 26 14 Z 1019,9 50 0,0
07.08.2020 09:00:00 18,8 14,1 3 2 9 5 O 1020,8 50 0,0
07.08.2020 08:00:00 15,2 13,4 5 3 15 8 OZO 1022,1 50 0,0
07.08.2020 07:00:00 12,9 11,8 6 4 14 8 OZO 1022,8 50 0,0
07.08.2020 06:00:00 11,3 11,0 5 3 16 9 OZO 1023,0 39 0,0
07.08.2020 05:00:00 11,2 10,9 9 5 13 7 OZO 1023,0 50 0,0
07.08.2020 04:00:00 9,4 9,1 3 1 7 4 ZO 1023,7 19 0,0
07.08.2020 03:00:00 8,7 8,1 3 2 5 3 NW 1023,9 43 0,0
07.08.2020 02:00:00 9,5 9,0 3 1 6 3 WNW 1023,6 50 0,0
07.08.2020 01:00:00 10,0 9,2 3 2 5 3 W 1023,4 50 0,0
07.08.2020 00:00:00 11,7 10,6 3 2 5 3 WZW 1022,7 50 0,0
06.08.2020 23:00:00 13,5 11,7 2 1 4 2 WZW 1021,9 50 0,0
06.08.2020 22:00:00 15,5 12,4 2 1 8 4 W 1021,0 50 0,0
06.08.2020 21:00:00 17,1 12,8 4 2 8 5 NW 1020,1 50 0,0
06.08.2020 20:00:00 18,4 11,2 5 3 13 7 NW 1019,3 50 0,0
06.08.2020 19:00:00 18,4 11,7 7 4 14 8 NW 1018,8 50 0,0
06.08.2020 18:00:00 17,6 12,3 9 5 23 13 NW 1018,8 50 0,0
06.08.2020 17:00:00 18,8 12,8 11 6 21 12 WNW 1017,9 50 0,0
06.08.2020 16:00:00 18,5 12,3 7 4 15 8 W 1017,5 50 0,0
06.08.2020 15:00:00 18,6 11,9 9 5 23 12 ZW 1016,9 50 0,0
06.08.2020 14:00:00 18,9 12,2 8 5 21 11 ZW 1016,1 50 0,0
06.08.2020 13:00:00 19,7 11,7 11 6 25 13 Z 1015,1 40 0,0
06.08.2020 12:00:00 18,1 11,9 12 6 24 13 ZZW 1015,2 50 0,0
06.08.2020 11:00:00 17,3 11,8 10 6 24 13 Z 1014,8 46 0,0
06.08.2020 10:00:00 16,4 11,8 9 5 22 12 Z 1014,7 50 0,0
06.08.2020 09:00:00 15,0 11,2 13 7 23 12 Z 1014,2 50 0,0
06.08.2020 08:00:00 13,2 11,3 5 3 12 7 ZZW 1013,9 50 0,0
06.08.2020 07:00:00 12,1 11,0 4 2 12 6 ZZO 1013,6 50 0,0
06.08.2020 06:00:00 12,7 10,4 6 3 16 9 OZO 1012,5 50 0,0
06.08.2020 05:00:00 12,6 10,1 9 5 22 12 ZZW 1011,8 50 0,0
06.08.2020 04:00:00 12,7 10,4 8 4 21 11 ZW 1011,6 50 0,0
06.08.2020 03:00:00 12,5 10,7 4 2 21 11 N 1010,9 50 0,0
06.08.2020 02:00:00 12,6 10,7 9 5 19 10 ZW 1010,3 42 0,1
06.08.2020 01:00:00 12,0 10,6 2 1 22 12 NO 1010,0 50 0,0
06.08.2020 00:00:00 12,5 10,4 9 5 18 10 ZW 1009,2 21 0,0
05.08.2020 23:00:00 12,5 10,4 6 3 21 11 ZW 1008,5 48 0,0
05.08.2020 22:00:00 12,8 10,3 10 5 21 12 ZZW 1007,5 50 0,0
05.08.2020 21:00:00 12,7 10,2 9 5 20 11 ZZW 1006,6 50 0,0
05.08.2020 20:00:00 13,1 10,1 10 6 24 13 ZZW 1006,0 50 0,0
05.08.2020 19:00:00 12,8 10,2 9 5 27 15 ZZW 1005,4 50 0,0
05.08.2020 18:00:00 12,4 9,8 11 6 31 17 ZZW 1005,2 50 0,0
05.08.2020 17:00:00 12,1 9,5 11 6 30 16 ZZW 1005,1 50 0,6
05.08.2020 16:00:00 12,3 8,8 11 6 37 20 Z 1004,8 50 0,1
05.08.2020 15:00:00 11,9 8,6 10 6 35 19 Z 1005,0 35 0,1
05.08.2020 14:00:00 12,8 6,8 13 7 34 18 ZZO 1005,1 49 0,0
05.08.2020 13:00:00 13,4 4,8 18 10 46 25 Z 1004,8 50 0,0
05.08.2020 12:00:00 14,3 5,9 22 12 44 24 Z 1004,7 50 0,0
05.08.2020 11:00:00 15,1 5,9 18 10 35 19 ZZO 1004,4 50 0,0
05.08.2020 10:00:00 14,7 4,7 20 11 34 18 ZZO 1004,8 49 0,0
05.08.2020 09:00:00 14,3 5,4 17 9 34 18 Z 1005,2 50 0,0
05.08.2020 08:00:00 12,1 8,2 3 2 8 5 O 1005,9 50 0,0
05.08.2020 07:00:00 6,1 5,8 0 0 7 4 N 1008,0 50 0,0
05.08.2020 06:00:00 4,2 3,9 2 1 8 4 Z 1008,9 50 0,0
05.08.2020 05:00:00 4,0 3,6 3 2 5 3 W 1009,3 50 0,0
05.08.2020 04:00:00 4,5 4,1 3 1 7 4 WNW 1009,3 50 0,0
05.08.2020 03:00:00 5,4 5,1 2 1 4 2 ZZO 1009,4 50 0,0
05.08.2020 02:00:00 4,9 4,5 2 1 5 3 W 1009,8 50 0,0
05.08.2020 01:00:00 5,5 4,9 3 2 5 3 W 1009,8 50 0,0
05.08.2020 00:00:00 7,0 6,1 2 1 4 2 WZW 1009,6 49 0,0
04.08.2020 23:00:00 8,0 6,8 2 1 5 3 W 1009,3 50 0,0
04.08.2020 22:00:00 9,6 7,5 2 1 10 5 WZW 1008,8 50 0,0
04.08.2020 21:00:00 11,5 8,2 3 2 5 3 ZO 1008,2 50 0,0
04.08.2020 20:00:00 12,5 7,4 0 0 10 5 N 1007,9 50 0,0
04.08.2020 19:00:00 13,0 7,2 6 3 20 11 NNW 1007,6 50 0,0
04.08.2020 18:00:00 14,8 5,8 10 6 22 12 W 1007,0 50 0,0
04.08.2020 17:00:00 13,5 6,6 10 5 18 10 NNW 1007,2 50 0,0
04.08.2020 16:00:00 14,4 5,2 11 6 23 13 W 1007,0 50 0,0
04.08.2020 15:00:00 14,5 4,2 9 5 19 11 WNW 1006,7 43 0,0
04.08.2020 14:00:00 13,4 5,5 7 4 23 12 WZW 1007,5 50 0,0
04.08.2020 13:00:00 13,2 5,6 11 6 27 14 WZW 1007,7 50 0,0
04.08.2020 12:00:00 11,5 6,2 11 6 22 12 ZW 1008,1 46 0,0
04.08.2020 11:00:00 11,2 5,3 8 4 21 11 W 1008,0 50 0,0
04.08.2020 10:00:00 10,3 6,6 6 3 14 8 WZW 1008,0 50 0,0
04.08.2020 09:00:00 9,6 6,9 5 3 13 7 ZW 1008,0 50 0,3
04.08.2020 08:00:00 8,5 7,3 6 3 15 8 ZW 1008,2 13 0,3
04.08.2020 07:00:00 8,4 6,5 6 3 16 9 W 1008,1 50 0,0
04.08.2020 06:00:00 7,8 6,4 9 5 20 11 W 1008,2 20 0,0
04.08.2020 05:00:00 7,7 6,2 8 4 22 12 W 1008,3 50 0,0
04.08.2020 04:00:00 7,9 6,2 13 7 23 12 W 1008,3 50 0,0
04.08.2020 03:00:00 7,7 6,3 8 4 18 10 WZW 1008,5 50 0,0
04.08.2020 02:00:00 7,3 6,6 10 5 21 11 W 1008,8 43 0,0
04.08.2020 01:00:00 7,3 6,2 6 3 14 8 WZW 1008,8 50 0,0
04.08.2020 00:00:00 7,3 6,6 9 5 18 10 W 1008,5 18 0,0
03.08.2020 23:00:00 7,1 6,2 6 4 13 7 W 1008,4 28 0,0
03.08.2020 22:00:00 7,3 6,2 5 3 29 16 W 1008,5 41 0,0
03.08.2020 21:00:00 7,6 6,4 14 8 37 20 W 1007,9 15 0,0
03.08.2020 20:00:00 7,8 6,6 16 9 39 21 WNW 1007,1 16 0,0
03.08.2020 19:00:00 8,1 6,4 20 11 44 24 W 1006,6 32 0,0
03.08.2020 18:00:00 7,9 6,7 22 12 51 28 W 1006,4 10 0,0
03.08.2020 17:00:00 8,0 6,6 27 15 54 29 WNW 1005,9 12 0,0
03.08.2020 16:00:00 8,9 7,0 19 10 48 26 WNW 1005,3 10 0,0
03.08.2020 15:00:00 9,4 7,7 20 11 46 25 WNW 1004,7 9 0,0
03.08.2020 14:00:00 9,4 7,3 24 13 49 26 WNW 1004,2 9 0,0
03.08.2020 13:00:00 10,1 7,7 21 12 44 24 WNW 1003,7 27 0,0
03.08.2020 12:00:00 10,0 7,8 19 10 40 22 WNW 1003,2 21 0,0
03.08.2020 11:00:00 10,2 8,0 20 11 39 21 WNW 1002,7 50 0,0
03.08.2020 10:00:00 10,3 8,7 14 8 29 16 W 1002,4 31 0,0
03.08.2020 09:00:00 10,1 9,0 13 7 28 15 W 1002,4 50 0,0
03.08.2020 08:00:00 9,8 8,9 10 6 24 13 W 1002,3 50 0,0
03.08.2020 07:00:00 9,9 9,4 9 5 17 9 W 1002,4 50 0,0
03.08.2020 06:00:00 9,9 9,7 6 3 14 8 NW 1002,3 5 0,0
03.08.2020 05:00:00 10,0 9,7 10 5 24 13 NW 1002,4 15 0,0
03.08.2020 04:00:00 10,3 10,1 14 8 24 13 NW 1002,3 8 0,2
03.08.2020 03:00:00 10,8 10,5 11 6 27 15 NW 1002,5 15 0,5
03.08.2020 02:00:00 11,0 10,5 14 8 26 14 NW 1002,5 3,2 0,7
03.08.2020 01:00:00 12,3 12,0 7 4 13 7 WNW 1002,3 11 0,8
03.08.2020 00:00:00 12,9 12,1 4 2 15 8 NW 1002,4 17 0,4
02.08.2020 23:00:00 13,3 10,7 5 3 9 5 WNW 1002,5 50 0,0
02.08.2020 22:00:00 13,5 9,4 0 0 6 3 N 1002,2 50 0,0
02.08.2020 21:00:00 15,0 8,7 3 2 13 7 O 1002,0 50 0,0
02.08.2020 20:00:00 17,4 7,4 4 2 25 14 Z 1001,6 50 0,0
02.08.2020 19:00:00 17,3 7,9 12 6 34 18 ZW 1001,7 50 0,0
02.08.2020 18:00:00 18,5 7,9 16 9 36 19 ZZW 1001,6 50 0,0
02.08.2020 17:00:00 19,9 9,2 13 7 27 14 ZZW 1001,5 33 0,0
02.08.2020 16:00:00 21,3 9,5 9 5 21 11 Z 1001,5 50 0,0
02.08.2020 15:00:00 21,5 10,6 9 5 26 14 Z 1002,0 47 0,0
02.08.2020 14:00:00 22,4 10,5 12 7 24 13 Z 1001,9 50 0,0
02.08.2020 13:00:00 20,0 10,4 11 6 23 13 ZZW 1003,0 28 0,0
02.08.2020 12:00:00 21,9 11,0 7 4 16 9 ZZO 1002,7 44 0,0
02.08.2020 11:00:00 20,7 10,2 6 3 13 7 ZO 1003,3 50 0,0
02.08.2020 10:00:00 21,3 11,3 3 2 16 9 ZZO 1003,5 47 0,0
02.08.2020 09:00:00 18,2 10,6 6 4 21 11 ZZW 1004,7 50 0,0
02.08.2020 08:00:00 15,9 10,4 3 2 9 5 O 1005,9 50 0,0
02.08.2020 07:00:00 14,2 9,6 3 2 19 11 OZO 1006,9 50 0,0
02.08.2020 06:00:00 14,4 9,4 7 4 19 10 Z 1007,1 50 0,0
02.08.2020 05:00:00 13,0 9,1 6 3 16 9 OZO 1008,0 50 0,0
02.08.2020 04:00:00 13,6 8,9 5 3 19 10 ZZO 1008,4 50 0,0
02.08.2020 03:00:00 15,0 9,4 9 5 27 15 ZZW 1008,5 50 0,0
02.08.2020 02:00:00 15,3 9,4 12 6 27 15 ZW 1008,7 50 0,0
02.08.2020 01:00:00 15,6 9,5 15 8 31 17 ZW 1009,1 50 0,0
02.08.2020 00:00:00 16,2 9,6 14 8 29 16 ZZW 1009,2 50 0,0
01.08.2020 23:00:00 16,7 9,6 14 8 27 15 ZW 1009,7 50 0,0

tt = temperatuur
td = dauwpunt
ff = windsnelheid
fx = windstoten
dd = windrichting
ppp = luchtdruk
vv = zicht
rr = neerslag

Weerstations in de omgeving